Temperature
29 29 29 29 29 29 29 29 29 30 30 29 29 28 27 26 26 25 25 24 23 23 22 22 21 21 21 21 20 20 20 20 19 19 19 18 18 18 18 18 18 18 18 17
27 28 28 28 29 29 28 29 29 29 29 29 28 27 26 25 25 25 24 23 23 22 22 21 21 21 21 20 20 20 20 19 19 19 18 18 18 18 18 18 18 17 17 17
27 28 27 27 28 28 28 28 28 28 28 27 27 26 25 25 24 24 23 23 22 22 21 21 21 21 21 20 20 20 20 19 19 19 18 18 18 18 18 18 18 17 17 17
26 26 25 28 28 28 27 27 27 27 26 26 25 24 23 23 23 22 22 22 21 21 21 21 21 21 20 20 20 20 19 19 19 19 18 18 18 18 18 18 17 17 17 17
26 26 26 27 26 26 26 26 26 25 25 24 24 24 24 22 21 21 21 21 21 21 21 21 20 20 20 20 20 19 19 19 19 19 19 18 18 18 18 18 17 17 17 17
25 24 25 26 26 25 25 25 24 24 23 23 24 25 24 21 20 20 20 20 20 20 20 20 20 20 20 20 19 19 19 19 19 19 18 18 18 18 18 18 17 17 17 17
24 24 25 25 24 24 24 24 22 22 22 22 22 22 21 20 19 19 19 19 19 19 19 19 19 19 19 19 19 19 19 19 19 18 18 18 18 18 18 17 17 17 17 17
23 23 24 23 23 23 23 21 21 21 21 20 20 19 19 19 19 18 18 18 18 18 18 18 19 19 19 19 19 19 18 18 18 18 18 18 18 18 17 17 17 16 16 16
23 23 21 21 21 21 21 20 20 20 20 19 19 19 18 18 18 18 18 18 18 18 18 18 18 18 18 18 18 18 18 18 18 18 18 17 17 17 17 17 16 16 16 16
21 22 21 20 20 19 19 19 19 19 19 18 18 18 18 17 17 17 17 17 17 17 17 17 18 18 18 18 18 18 18 17 17 17 17 17 17 17 16 16 16 16 16 16
20 20 20 19 19 18 18 18 18 18 18 18 18 17 17 16 16 16 17 17 17 17 17 17 17 17 17 17 18 17 17 17 17 17 17 17 17 17 16 16 16 16 16 16
20 19 19 18 18 17 17 17 17 17 17 17 17 17 16 16 16 16 16 16 16 16 16 17 17 17 17 17 17 17 17 16 17 17 16 16 16 16 16 16 16 16 16 15
18 17 17 17 17 17 16 16 16 16 16 16 16 16 15 15 15 16 16 16 16 16 16 16 16 16 16 16 16 16 16 16 16 16 16 16 16 16 16 15 15 15 15 15
16 15 16 16 16 16 16 16 16 16 16 16 15 15 15 15 15 15 15 15 15 15 15 15 16 16 16 16 16 16 16 16 16 16 16 16 16 16 16 15 15 15 15 15
15 15 15 15 15 15 15 15 15 15 15 15 15 15 14 14 14 14 14 14 15 15 15 15 15 15 15 15 15 15 15 15 15 15 15 16 15 15 15 15 15 15 15 15
15 15 15 15 15 15 15 15 15 15 15 14 14 14 14 14 14 13 14 14 14 14 14 14 15 15 15 15 15 15 15 15 15 15 15 15 15 15 15 15 15 14 14 14
14 14 14 14 14 14 14 14 14 14 14 14 13 13 13 13 13 13 13 14 14 14 14 14 14 14 14 14 14 14 15 15 14 14 15 15 15 14 14 14 14 14 14 14
13 13 13 13 13 13 13 13 13 13 13 13 13 13 12 12 12 12 13 13 13 13 13 13 14 14 14 14 14 14 14 14 14 14 14 14 14 14 14 14 14 14 14 13
13 13 13 13 12 12 12 12 12 12 12 12 12 12 12 12 12 12 12 12 12 12 13 13 13 13 13 13 13 13 14 14 14 14 14 14 13 14 14 13 13 13 13 13
12 12 12 12 12 12 12 12 12 12 12 12 12 12 12 12 12 12 12 12 12 12 12 13 13 13 13 13 13 13 13 14 14 14 13 13 13 13 13 13 13 13 13 13
11 11 11 11 11 11 11 11 11 11 11 11 11 11 11 11 11 11 11 11 12 12 12 12 12 12 13 13 13 13 13 13 13 13 13 13 13 13 13 13 12 12 12 12
11 11 11 11 11 11 11 11 11 11 11 11 11 11 11 11 11 11 11 11 11 11 11 12 12 12 12 12 12 13 13 13 13 13 13 13 12 12 12 12 12 12 11 11
10 10 10 10 10 10 10 10 10 10 10 10 10 10 10 11 11 11 11 11 11 11 11 11 12 12 12 12 12 12 12 12 12 12 12 12 12 12 11 11 11 11 11 11
10 10 10 10 10 10 10 10 10 10 10 10 10 10 10 10 10 10 10 11 10 11 11 11 11 11 11 11 11 11 12 11 11 12 11 11 11 11 11 11 11 11 10 10
9 10 10 10 10 10 10 10 10 10 10 10 10 10 10 10 10 10 10 10 10 10 10 10 10 11 11 11 11 11 11 11 11 11 11 11 11 11 10 10 10 10 10 10
9 10 10 10 10 10 10 10 10 10 10 10 10 10 10 10 9 10 10 10 10 10 10 10 10 10 10 11 11 11 11 11 11 11 11 10 10 10 10 10 10 10 10 10
9 10 10 10 10 10 10 10 10 10 10 10 10 10 10 10 10 10 10 10 10 10 10 10 10 10 10 10 11 11 11 11 11 10 10 10 10 10 10 10 10 10 10 9
Wind_Speed
12 9 10 11 12 13 15 16 16 13 11 8 5 5 4 3 2 3 4 5 6 6 6 7 7 8 8 7 7 8 9 9 9 9 9 9 8 8 8 8 9 8 8 7
13 12 12 13 14 15 15 15 16 15 12 6 3 2 3 3 2 2 3 5 6 7 7 7 7 8 8 8 8 8 9 9 8 8 9 9 9 9 9 8 8 8 8 8
14 11 12 16 13 13 13 12 12 13 9 4 4 3 3 3 3 3 2 3 5 6 6 6 7 8 8 8 8 8 8 7 8 8 8 9 9 9 9 9 9 8 8 7
11 10 16 8 2 6 8 8 8 8 6 4 3 3 2 3 4 4 3 2 3 4 5 6 6 7 8 8 8 8 7 7 8 8 8 8 8 9 9 8 8 7 7 8
11 15 15 8 4 5 8 8 5 5 4 3 3 4 3 2 4 4 4 3 2 3 4 5 6 7 8 8 8 8 8 8 8 8 8 8 8 8 8 7 7 7 7 8
11 14 15 6 1 2 7 9 1 2 2 3 3 6 2 4 5 5 4 2 1 1 3 4 5 6 8 9 8 8 8 7 7 8 8 8 8 8 7 7 7 7 7 8
15 16 11 3 1 3 8 4 2 1 1 2 3 4 4 4 4 5 4 3 1 1 2 3 4 5 7 8 8 7 7 7 7 7 7 7 6 7 7 7 7 7 7 7
11 14 9 3 1 4 3 2 1 2 2 2 3 3 3 3 4 4 4 3 2 0 1 1 3 5 5 6 5 6 6 6 6 7 7 6 7 7 7 7 8 8 7 7
6 5 3 1 2 3 3 3 3 3 3 3 3 3 4 4 4 4 3 2 2 1 1 1 1 2 3 3 4 5 6 6 6 6 6 6 7 7 7 7 7 7 7 7
7 6 4 3 3 3 4 4 4 4 4 4 4 4 4 4 4 4 3 3 2 1 1 1 1 2 2 2 3 4 5 5 5 6 6 6 6 6 7 7 7 7 7 6
9 8 6 5 4 4 4 4 5 5 5 5 5 5 4 4 4 4 4 3 3 3 2 2 2 2 2 2 3 4 4 4 5 6 6 6 6 5 7 7 6 7 6 6
8 6 6 6 5 5 5 6 6 6 6 6 5 5 5 5 5 5 5 4 4 4 4 3 3 3 3 3 3 4 4 5 5 5 5 6 6 6 4 4 4 5 4 5
8 8 8 8 8 7 7 7 7 7 7 7 6 5 5 5 5 5 5 5 5 5 5 4 4 4 4 4 4 5 5 5 5 5 5 6 6 6 6 5 5 7 7 7
7 7 8 8 8 8 8 7 7 7 7 7 6 6 6 6 5 5 5 5 5 5 5 5 5 5 4 4 5 5 6 5 6 5 5 6 6 6 6 6 6 6 7 8
8 8 9 8 7 7 6 6 6 6 6 6 5 5 5 6 6 6 6 6 5 6 6 6 6 6 5 5 5 6 6 5 5 5 6 6 6 6 6 7 7 6 5 6
8 8 8 8 8 8 7 7 7 7 6 6 5 5 6 6 6 6 6 6 6 7 6 6 7 7 6 6 6 6 6 6 6 6 6 6 6 6 6 7 7 6 6 5
8 8 8 8 8 8 7 7 7 7 6 6 6 6 6 6 6 6 7 7 6 7 7 7 7 7 7 7 7 6 6 6 7 7 6 6 6 6 6 7 7 6 7 6
8 8 8 8 7 7 7 7 7 7 7 7 7 6 6 7 7 7 7 7 7 7 7 7 6 6 7 7 7 6 6 6 6 6 6 6 6 6 6 6 7 7 6 6
6 6 7 7 7 6 7 7 7 7 7 7 7 7 7 8 8 7 7 7 7 7 7 6 5 6 7 7 6 6 7 7 7 6 6 6 7 7 7 7 7 7 6 6
5 5 5 6 6 6 7 7 7 7 7 6 7 7 8 7 7 7 6 7 6 6 5 5 6 6 7 6 6 6 7 7 7 6 6 6 6 6 6 6 6 6 6 6
5 5 5 5 6 6 6 7 6 6 6 7 7 7 7 6 6 5 5 6 5 5 5 5 5 5 5 4 6 6 6 6 6 6 5 5 5 6 5 5 5 5 5 5
5 5 6 6 6 6 6 6 5 5 5 6 6 6 5 5 5 5 5 5 5 4 4 5 5 3 3 4 5 6 6 6 6 5 5 4 5 5 5 5 4 5 5 5
6 5 6 6 6 6 5 5 4 4 4 4 5 4 4 4 4 4 5 4 4 4 4 4 2 0 3 5 5 5 5 5 5 4 4 4 4 4 4 5 4 4 5 5
7 6 5 5 5 4 4 4 4 3 3 4 3 3 3 3 4 4 4 2 3 3 4 2 1 2 5 4 4 4 4 4 4 4 4 4 4 4 4 4 4 4 4 5
6 6 5 5 4 3 3 3 3 3 3 2 2 2 3 3 4 4 4 3 2 3 3 1 2 3 4 3 3 3 3 3 3 3 3 3 4 3 4 4 4 4 3 3
5 4 4 4 4 4 3 3 3 3 3 2 2 3 3 3 3 3 3 2 2 3 3 2 2 3 3 3 2 2 2 2 3 3 3 3 3 3 3 3 4 3 3 3
5 3 3 3 3 3 3 3 3 3 3 3 3 3 3 3 2 3 3 2 2 2 2 2 2 3 3 2 2 2 2 2 2 2 2 2 2 3 3 3 3 2 2 2
Wind_Direction
262 270 263 257 252 243 242 253 263 271 276 280 287 295 300 293 261 223 208 200 196 193 187 188 185 183 185 189 189 192 193 196 194 195 197 198 200 203 203 206 206 203 204 205
254 253 257 258 254 250 248 253 259 266 271 294 288 282 282 281 265 240 219 208 201 198 194 193 188 183 182 186 184 187 194 196 190 191 195 197 201 205 205 205 206 204 204 206
257 251 254 252 250 248 246 251 259 262 275 290 275 263 268 284 283 285 269 226 211 204 203 201 193 185 183 186 184 184 190 193 192 194 198 202 203 202 203 202 200 203 207 210
258 250 249 258 279 255 247 257 269 275 289 283 278 278 297 314 313 313 306 270 225 212 202 199 192 184 183 180 182 185 187 192 198 198 200 204 204 203 204 201 201 202 208 214
251 250 252 242 241 251 251 252 281 280 285 289 277 254 244 2 348 332 322 302 253 221 203 193 188 181 176 175 177 183 188 192 196 198 199 201 204 203 203 201 203 204 207 213
246 253 258 261 265 267 258 245 273 292 289 300 275 250 258 12 353 354 349 339 299 195 192 188 184 180 178 178 178 184 190 192 196 199 200 202 205 205 202 202 205 207 207 212
246 251 256 304 305 224 239 264 56 321 306 291 279 303 321 331 343 349 348 353 5 178 189 178 179 179 183 183 187 190 190 189 191 198 203 203 203 202 200 203 205 210 209 213
245 250 252 26 201 249 298 10 352 331 317 319 322 328 328 322 326 329 337 354 7 46 158 158 169 178 185 189 188 189 190 192 194 197 205 199 199 201 203 203 202 206 209 214
261 270 4 358 288 306 302 299 312 319 321 316 308 312 322 324 320 318 317 330 340 21 115 143 169 177 188 188 186 188 189 194 197 197 201 201 200 201 203 205 211 210 211 214
265 263 281 280 289 303 305 300 302 306 303 300 298 305 312 319 320 318 318 315 308 271 212 204 204 196 207 191 190 193 194 196 199 200 202 198 206 210 213 213 216 215 215 219
259 268 276 265 281 293 302 307 306 304 298 295 292 292 297 303 311 313 310 307 291 264 247 236 234 233 226 198 194 201 204 206 210 210 208 207 210 215 219 220 223 225 223 219
268 279 276 278 286 300 300 296 295 293 293 293 287 286 288 291 295 296 297 297 282 268 260 250 236 232 228 215 211 211 215 220 223 223 216 216 213 214 205 227 194 205 243 257
279 292 285 283 284 283 285 288 290 288 286 286 284 279 280 283 284 287 288 286 275 265 259 252 240 233 227 222 220 219 225 227 235 234 229 225 223 225 221 207 192 198 207 223
282 283 278 278 279 279 278 281 283 283 283 284 278 275 276 278 282 287 289 285 272 261 254 248 241 240 233 226 226 231 232 223 232 238 239 235 232 230 229 225 219 217 205 202
279 275 277 283 279 278 278 278 278 281 281 283 279 275 277 282 284 286 289 289 277 263 255 250 247 247 239 234 235 238 241 240 236 241 241 240 238 233 230 227 228 225 216 187
287 280 277 276 272 270 272 276 277 279 281 284 284 284 286 285 283 283 285 281 271 267 262 257 254 250 240 235 237 239 238 231 238 243 241 239 238 235 232 228 228 225 222 216
284 280 277 274 270 270 273 278 280 281 280 281 283 282 280 281 283 283 284 280 271 267 261 256 253 248 240 234 236 242 245 234 220 239 242 240 238 236 235 231 228 227 228 207
277 275 272 272 272 274 279 283 284 281 277 276 280 280 277 274 277 282 285 284 278 272 268 262 255 245 238 233 235 245 247 248 241 239 240 238 239 240 239 234 231 233 230 195
291 287 283 278 275 270 271 274 279 279 275 272 273 275 274 273 272 272 274 276 272 267 266 266 258 249 245 239 239 241 245 244 242 238 236 228 230 236 236 234 232 232 230 219
308 302 294 288 282 276 274 275 275 275 274 272 273 275 277 277 274 273 275 274 275 279 280 276 262 254 251 241 236 244 245 246 245 241 237 235 235 235 235 234 232 231 229 227
314 308 302 298 293 286 281 278 275 275 276 274 273 275 279 282 280 279 279 281 284 285 281 271 260 258 255 254 237 249 248 247 246 243 239 237 239 240 237 233 230 230 232 236
314 309 304 301 299 294 290 285 281 277 278 281 280 281 283 284 284 284 283 284 287 289 276 267 264 267 273 265 252 257 253 250 247 244 240 240 240 240 239 236 236 236 234 232
306 303 301 298 298 298 296 296 288 279 279 282 286 289 292 297 296 289 289 294 293 297 287 284 311 354 263 257 258 258 255 250 245 243 242 241 240 240 238 234 238 242 241 237
306 302 299 298 295 295 297 301 295 284 276 278 283 287 291 289 284 282 284 285 287 295 292 316 106 246 257 255 257 255 251 245 240 237 237 234 235 239 243 241 238 238 238 235
303 300 298 294 291 294 293 290 285 279 276 285 288 277 280 286 289 297 296 291 294 280 291 304 204 243 253 256 246 243 240 234 232 229 224 222 222 224 231 236 239 238 236 234
308 303 305 301 304 300 297 295 301 305 304 297 291 293 297 298 294 291 291 292 284 276 286 290 273 252 259 263 246 237 231 208 207 218 224 227 227 233 234 228 225 227 221 222
320 326 318 314 313 315 315 316 316 318 315 306 301 306 309 303 302 307 304 292 281 281 284 277 266 264 272 275 262 250 247 242 235 232 226 228 237 236 227 225 227 225 224 222
Height
1479 1478 1478 1480 1480 1480 1483 1480 1482 1477 1476 1475 1477 1480 1483 1484 1486 1487 1488 1490 1491 1493 1494 1496 1498 1499 1501 1504 1506 1508 1510 1512 1513 1516 1518 1520 1521 1523 1525 1526 1528 1529 1530 1531
1484 1479 1479 1480 1477 1477 1477 1477 1476 1475 1476 1475 1478 1482 1484 1484 1485 1486 1487 1488 1489 1491 1492 1494 1495 1496 1499 1501 1503 1505 1507 1509 1510 1512 1514 1516 1518 1520 1521 1523 1524 1526 1527 1528
1484 1477 1481 1483 1474 1474 1474 1474 1475 1476 1476 1477 1479 1481 1484 1484 1485 1486 1486 1487 1488 1489 1490 1491 1492 1494 1496 1498 1500 1502 1504 1506 1507 1509 1511 1513 1515 1517 1518 1519 1521 1522 1523 1524
1482 1485 1496 1473 1469 1470 1473 1474 1474 1475 1477 1478 1481 1483 1484 1485 1485 1485 1486 1486 1486 1487 1488 1489 1490 1492 1493 1495 1497 1499 1501 1503 1505 1506 1508 1510 1512 1513 1514 1516 1517 1518 1520 1521
1483 1483 1478 1472 1471 1473 1475 1475 1476 1477 1478 1480 1480 1480 1481 1484 1485 1485 1485 1485 1485 1485 1486 1487 1488 1490 1491 1493 1494 1496 1498 1500 1501 1503 1505 1507 1508 1510 1511 1512 1514 1515 1516 1517
1482 1487 1484 1471 1471 1474 1476 1477 1478 1479 1480 1480 1479 1477 1479 1483 1484 1483 1483 1483 1483 1483 1484 1485 1486 1487 1489 1491 1492 1493 1495 1497 1499 1500 1502 1503 1505 1506 1508 1509 1510 1511 1513 1514
1480 1480 1471 1472 1473 1475 1481 1478 1480 1480 1481 1481 1481 1482 1483 1483 1483 1482 1482 1482 1481 1481 1482 1483 1483 1485 1487 1488 1489 1491 1493 1494 1495 1497 1499 1500 1502 1503 1504 1505 1507 1508 1509 1510
1478 1480 1477 1474 1474 1476 1477 1479 1480 1481 1482 1482 1483 1483 1483 1482 1482 1481 1481 1480 1480 1480 1480 1481 1482 1483 1485 1486 1487 1488 1490 1491 1492 1493 1496 1497 1498 1499 1501 1502 1503 1504 1505 1506
1474 1475 1478 1478 1479 1480 1480 1480 1481 1481 1482 1482 1482 1482 1481 1481 1481 1480 1479 1479 1479 1479 1479 1480 1480 1481 1483 1483 1484 1486 1487 1488 1489 1490 1492 1493 1495 1496 1497 1498 1500 1501 1502 1502
1478 1475 1477 1478 1479 1480 1480 1480 1480 1481 1481 1481 1480 1480 1480 1479 1479 1478 1478 1478 1477 1478 1478 1478 1479 1479 1481 1481 1482 1483 1484 1485 1486 1487 1488 1489 1491 1492 1493 1494 1495 1496 1497 1498
1478 1478 1478 1478 1479 1479 1479 1479 1479 1479 1479 1479 1478 1478 1478 1477 1477 1477 1476 1476 1476 1476 1476 1476 1476 1477 1478 1479 1480 1480 1481 1482 1483 1484 1485 1486 1487 1488 1489 1490 1491 1492 1493 1494
1475 1476 1477 1477 1477 1477 1477 1477 1477 1477 1476 1477 1476 1476 1475 1474 1474 1474 1473 1473 1473 1473 1473 1473 1474 1474 1475 1475 1476 1477 1478 1478 1480 1481 1481 1482 1483 1484 1484 1486 1486 1487 1488 1490
1477 1477 1476 1475 1475 1475 1475 1475 1474 1474 1473 1473 1473 1473 1472 1471 1471 1470 1470 1469 1469 1469 1469 1470 1470 1471 1472 1472 1473 1473 1474 1475 1476 1477 1477 1478 1478 1479 1480 1481 1482 1482 1483 1485
1476 1476 1474 1473 1472 1472 1471 1471 1471 1470 1470 1470 1469 1469 1469 1468 1468 1467 1466 1466 1466 1465 1466 1466 1466 1467 1468 1468 1468 1469 1470 1471 1471 1472 1473 1474 1474 1475 1476 1477 1477 1478 1478 1480
1474 1473 1472 1470 1469 1468 1468 1467 1467 1466 1466 1466 1466 1466 1465 1465 1464 1463 1463 1462 1462 1462 1462 1462 1462 1463 1464 1464 1464 1465 1466 1467 1468 1469 1469 1470 1470 1470 1471 1472 1473 1473 1474 1474
1470 1469 1468 1467 1466 1465 1465 1464 1464 1463 1463 1463 1463 1462 1462 1461 1461 1460 1459 1459 1459 1458 1458 1458 1458 1458 1459 1460 1460 1461 1462 1463 1463 1464 1465 1465 1466 1466 1467 1467 1468 1469 1469 1470
1467 1466 1465 1463 1462 1462 1462 1461 1461 1460 1460 1460 1460 1459 1459 1458 1457 1457 1456 1455 1454 1454 1454 1454 1454 1454 1455 1455 1456 1457 1458 1458 1459 1459 1460 1460 1461 1461 1462 1462 1463 1464 1465 1465
1464 1463 1462 1461 1460 1459 1458 1458 1458 1457 1457 1457 1456 1456 1455 1454 1453 1452 1451 1451 1450 1450 1450 1450 1450 1450 1451 1451 1452 1453 1454 1454 1455 1455 1455 1455 1456 1457 1457 1458 1458 1459 1460 1461
1460 1459 1458 1457 1457 1456 1455 1455 1454 1454 1453 1453 1452 1452 1451 1450 1449 1449 1448 1447 1446 1445 1445 1446 1446 1446 1447 1447 1448 1448 1449 1450 1450 1450 1451 1450 1451 1452 1453 1453 1454 1455 1456 1456
1458 1457 1456 1454 1453 1453 1451 1451 1451 1450 1449 1449 1448 1447 1446 1446 1445 1444 1443 1442 1442 1442 1441 1441 1441 1442 1443 1443 1443 1444 1445 1445 1446 1446 1446 1446 1446 1447 1448 1448 1449 1450 1451 1452
1455 1454 1453 1452 1450 1449 1448 1447 1447 1446 1445 1445 1444 1443 1442 1441 1441 1440 1439 1438 1438 1438 1437 1438 1438 1438 1439 1439 1439 1440 1440 1440 1441 1441 1442 1442 1442 1443 1443 1444 1444 1445 1446 1447
1453 1452 1450 1449 1447 1446 1445 1444 1443 1442 1442 1441 1440 1440 1439 1438 1437 1437 1436 1436 1435 1434 1434 1434 1435 1434 1434 1435 1435 1436 1436 1436 1437 1437 1437 1438 1438 1439 1439 1439 1440 1441 1441 1442
1450 1449 1447 1446 1444 1443 1442 1441 1440 1439 1439 1438 1437 1437 1436 1435 1434 1434 1434 1433 1432 1432 1431 1431 1431 1430 1430 1430 1431 1431 1432 1432 1432 1433 1433 1434 1434 1434 1435 1435 1436 1437 1437 1438
1447 1445 1444 1443 1442 1440 1439 1439 1438 1437 1436 1436 1435 1434 1434 1433 1432 1432 1431 1430 1429 1428 1428 1428 1427 1427 1426 1427 1427 1428 1428 1428 1429 1429 1429 1430 1430 1430 1431 1431 1432 1433 1433 1434
1444 1442 1441 1440 1439 1438 1437 1436 1435 1435 1434 1434 1433 1432 1432 1431 1431 1429 1428 1427 1427 1426 1426 1425 1424 1424 1424 1424 1424 1425 1425 1425 1426 1426 1427 1427 1427 1427 1427 1428 1429 1429 1430 1430
1441 1440 1439 1438 1437 1436 1435 1435 1434 1433 1432 1431 1431 1431 1430 1429 1428 1427 1426 1426 1425 1425 1424 1423 1423 1422 1422 1422 1422 1422 1423 1423 1423 1424 1424 1424 1424 1424 1424 1425 1425 1426 1426 1426
1440 1438 1437 1437 1436 1435 1434 1433 1432 1431 1431 1430 1429 1429 1428 1428 1427 1426 1425 1424 1424 1423 1423 1422 1421 1421 1421 1421 1420 1420 1421 1421 1421 1421 1421 1421 1422 1422 1422 1422 1422 1423 1423 1423